Tracking 34085 objects as of 13-May-2026
HD Live streaming from Space Station
objects crossing your sky now

STARLINK-37027

Track STARLINK-37027 now!
10-day predictions
STARLINK-37027 is classified as:


NORAD ID: 68232
Int'l Code: 2026-054A
Perigee: 389.6 km
Apogee: 391.0 km
Inclination: 53.2 °
Period: 92.2 minutes
Semi major axis: 6761 km
RCS: Unknown
Launch date: March 17, 2026
Source: United States (US)
Launch site: AIR FORCE EASTERN TEST RANGE (AFETR)
Your satellite tracking list
Your tracking list is empty




NASA's NSSDC Master Catalog

Two Line Element Set (TLE):
1 68232U 26054A   26132.83335647 -.01908145  00000-0 -24689-1 0  9991
2 68232  53.1591 353.2173 0001006 120.6269 185.7108 15.61560210  6007
Source of the keplerian elements: AFSPC